{"data":{"norad_id":51997,"epoch":"2026-09-19T14:22:23.488608Z","epoch_age_seconds":132886,"freshness":"FRESH","line1":"1 51997U 22025AT  26262.59888297 -.00000408  00000+0 -95338-6 0  9993","line2":"2 51997  53.1593 213.6800 0001271 100.1763 259.9383 15.34380763250385","mean_motion":15.34380763,"eccentricity":0.0001271,"inclination_deg":53.1593,"raan_deg":213.68,"arg_perigee_deg":100.1763,"mean_anomaly_deg":259.9383,"bstar":-9.5338e-7,"rev_number":25038,"period_min":93.848934679325,"perigee_km":461.89093916075,"apogee_km":463.62989528421,"semimajor_km":6840.8974172225,"source":"CELESTRAK","updated_at":"2026-09-20T09:00:39.982776Z"}}